Weather History for Crookston, MN

Change the Weather History Date:

Thursday, March 21, 2013

  Actual Average Record
Temperature  
Mean Temperature 0 °F -  
Max Temperature 14 °F 34 °F 66 °F (2012)
Min Temperature -14 °F 18 °F -14 °F (2013)
Degree Days  
Heating Degree Days 65    
Moisture  
Dew Point -3 °F    
Average Humidity 83    
Maximum Humidity 92    
Minimum Humidity 73    
Precipitation  
Precipitation 0.00 in - - ()
Sea Level Pressure  
Sea Level Pressure 30.14 in    
Wind  
Wind Speed 3 mph (North)    
Max Wind Speed 8 mph    
Max Gust Speed -    
Visibility 10 miles    
Events      
Averages and records for this station are not official NWS values.
T = Trace of Precipitation, MM = Missing Value Source: NWS Daily Summary

Daily Weather History Graph

Daily Weather History Graph

Search for Another Location

Airport:

Trip Planner

Search our weather history database for the weather conditions in past years. The results will help you decide how hot, cold, wet, or windy it might be!

Date:

Astronomy

Mar. 21, 2013 Rise Set
Actual Time 7:26 AM CDT 7:41 PM CDT
Civil Twilight 6:55 AM CDT 8:12 PM CDT
Nautical Twilight 6:19 AM CDT 8:48 PM CDT
Astronomical Twilight 5:41 AM CDT 9:26 PM CDT
Moon 1:51 PM CDT (3/21) 4:11 AM CDT (3/21)
Length of Visible Light 13h 16m
Length of Day
12h 14m
Waxing Gibbous, 69% of the Moon is Illuminated
Mar 21
Waxing Gibbous
Mar 27
Full
Apr 2
Last Quarter
Apr 10
New
Apr 18
First Quarter

Hourly Weather History & Observations

Time (CDT) Temp. Windchill Dew Point Humidity Pressure Visibility Wind Dir Wind Speed Gust Speed Precip Events Conditions
12:14 AM -0.4 °F -10.4 °F -5.8 °F 78% 30.18 in 10.0 mi North 4.6 mph - N/A   Clear
12:35 AM -5.8 °F - -9.4 °F 84% 30.18 in 10.0 mi Calm Calm - N/A   Clear
1:14 AM -5.8 °F -14.5 °F -9.4 °F 84% 30.18 in 10.0 mi West 3.5 mph - N/A   Clear
1:35 AM -7.6 °F -16.5 °F -11.2 °F 84% 30.18 in 10.0 mi WNW 3.5 mph - N/A   Clear
1:55 AM -7.6 °F -18.8 °F -11.2 °F 84% 30.17 in 10.0 mi NW 4.6 mph - N/A   Clear
2:14 AM -7.6 °F -18.8 °F -9.4 °F 92% 30.17 in 10.0 mi NNW 4.6 mph - N/A   Clear
2:35 AM -7.6 °F -16.5 °F -11.2 °F 84% 30.17 in 10.0 mi NNW 3.5 mph - N/A   Clear
2:55 AM -4.0 °F -14.6 °F -7.6 °F 85% 30.16 in 10.0 mi North 4.6 mph - N/A   Clear
3:14 AM -4.0 °F -12.4 °F -7.6 °F 85% 30.16 in 10.0 mi North 3.5 mph - N/A   Clear
3:35 AM -4.0 °F - -7.6 °F 85% 30.16 in 10.0 mi Calm Calm - N/A   Clear
3:55 AM -5.8 °F - -7.6 °F 92% 30.15 in 10.0 mi Calm Calm - N/A   Clear
4:14 AM -4.0 °F - -7.6 °F 85% 30.14 in 10.0 mi Calm Calm - N/A   Clear
4:35 AM -5.8 °F - -9.4 °F 84% 30.14 in 10.0 mi Calm Calm - N/A   Clear
4:55 AM -11.2 °F - -16.6 °F 77% 30.15 in 10.0 mi Calm Calm - N/A   Clear
5:14 AM -11.2 °F - -14.8 °F 84% 30.15 in 10.0 mi Calm Calm - N/A   Clear
5:35 AM -9.4 °F - -13.0 °F 84% 30.14 in 10.0 mi Calm Calm - N/A   Clear
5:54 AM -9.4 °F - -14.8 °F 77% 30.14 in 10.0 mi Calm Calm - N/A   Clear
6:14 AM -9.4 °F - -13.0 °F 84% 30.14 in 10.0 mi Calm Calm - N/A   Clear
6:35 AM -9.4 °F - -13.0 °F 84% 30.14 in 10.0 mi Calm Calm - N/A   Clear
6:54 AM -9.4 °F - -14.8 °F 77% 30.15 in 10.0 mi Calm Calm - N/A   Clear
7:14 AM -14.8 °F - -18.4 °F 84% 30.15 in 10.0 mi Calm Calm - N/A   Clear
7:54 AM -13.0 °F - -18.4 °F 77% 30.15 in 10.0 mi Calm Calm - N/A   Clear
8:14 AM -11.2 °F - -16.6 °F 77% 30.15 in 10.0 mi Calm Calm - N/A   Clear
8:35 AM -11.2 °F - -16.6 °F 77% 30.15 in 10.0 mi Calm Calm - N/A   Clear
8:54 AM -9.4 °F - -14.8 °F 77% 30.15 in 10.0 mi Calm Calm - N/A   Clear
9:15 AM -7.6 °F - -11.2 °F 84% 30.15 in 10.0 mi Calm Calm - N/A   Clear
9:35 AM -5.8 °F - -9.4 °F 84% 30.14 in 10.0 mi Calm Calm - N/A   Clear
9:54 AM -5.8 °F - -9.4 °F 84% 30.15 in 10.0 mi Calm Calm - N/A   Clear
10:15 AM -5.8 °F - -9.4 °F 84% 30.15 in 10.0 mi Calm Calm - N/A   Clear
10:35 AM -2.2 °F - -5.8 °F 85% 30.15 in 10.0 mi Calm Calm - N/A   Clear
10:54 AM 1.4 °F - -2.2 °F 85% 30.15 in 10.0 mi Calm Calm - N/A   Clear
11:15 AM 3.2 °F - -0.4 °F 85% 30.15 in 10.0 mi Calm Calm - N/A   Clear
11:34 AM 3.2 °F - -2.2 °F 78% 30.15 in 10.0 mi Calm Calm - N/A   Clear
11:54 AM 3.2 °F - -0.4 °F 85% 30.15 in 10.0 mi Calm Calm - N/A   Clear
12:15 PM 6.8 °F - 1.4 °F 79% 30.15 in 10.0 mi Calm Calm - N/A   Clear
12:35 PM 6.8 °F - 1.4 °F 79% 30.15 in 10.0 mi Calm Calm - N/A   Clear
12:54 PM 8.6 °F - 3.2 °F 79% 30.15 in 10.0 mi Calm Calm - N/A   Clear
1:15 PM 10.4 °F - 3.2 °F 73% 30.15 in 10.0 mi Calm Calm - N/A   Clear
1:34 PM 10.4 °F 4.0 °F 5.0 °F 79% 30.14 in 10.0 mi NNE 3.5 mph - N/A   Clear
1:54 PM 10.4 °F - 6.8 °F 85% 30.14 in 10.0 mi Calm Calm - N/A   Clear
2:15 PM 10.4 °F 4.0 °F 6.8 °F 85% 30.14 in 10.0 mi North 3.5 mph - N/A   Clear
2:34 PM 12.2 °F 6.1 °F 6.8 °F 79% 30.13 in 10.0 mi North 3.5 mph - N/A   Clear
2:54 PM 12.2 °F 6.1 °F 6.8 °F 79% 30.13 in 10.0 mi North 3.5 mph - N/A   Clear
3:15 PM 12.2 °F 4.3 °F 8.6 °F 85% 30.13 in 10.0 mi NNW 4.6 mph - N/A   Clear
3:34 PM 12.2 °F 2.9 °F 8.6 °F 85% 30.12 in 10.0 mi North 5.8 mph - N/A   Clear
3:54 PM 14.0 °F 5.1 °F 8.6 °F 79% 30.12 in 10.0 mi North 5.8 mph - N/A   Clear
4:15 PM 14.0 °F 3.9 °F 8.6 °F 79% 30.12 in 10.0 mi North 6.9 mph - N/A   Clear
4:34 PM 14.0 °F 6.5 °F 8.6 °F 79% 30.12 in 10.0 mi NNW 4.6 mph - N/A   Clear
4:55 PM 14.0 °F 3.9 °F 8.6 °F 79% 30.11 in 10.0 mi North 6.9 mph - N/A   Clear
5:15 PM 14.0 °F 5.1 °F 8.6 °F 79% 30.11 in 10.0 mi North 5.8 mph - N/A   Clear
5:34 PM 14.0 °F 3.9 °F 8.6 °F 79% 30.11 in 10.0 mi North 6.9 mph - N/A   Clear
5:55 PM 14.0 °F 5.1 °F 8.6 °F 79% 30.11 in 10.0 mi North 5.8 mph - N/A   Clear
6:14 PM 12.2 °F 1.7 °F 8.6 °F 85% 30.11 in 10.0 mi North 6.9 mph - N/A   Clear
6:34 PM 12.2 °F 1.7 °F 8.6 °F 85% 30.11 in 10.0 mi North 6.9 mph - N/A   Clear
6:55 PM 10.4 °F 0.8 °F 6.8 °F 85% 30.11 in 10.0 mi North 5.8 mph - N/A   Clear
7:14 PM 8.6 °F -1.3 °F 5.0 °F 85% 30.11 in 10.0 mi North 5.8 mph - N/A   Clear
7:34 PM 6.8 °F -5.9 °F 3.2 °F 85% 30.12 in 10.0 mi North 8.1 mph - N/A   Clear
7:55 PM 6.8 °F -5.9 °F 3.2 °F 85% 30.12 in 10.0 mi North 8.1 mph - N/A   Clear
8:14 PM 6.8 °F -4.8 °F 3.2 °F 85% 30.12 in 10.0 mi North 6.9 mph - N/A   Clear
8:34 PM 5.0 °F -4.1 °F 1.4 °F 85% 30.13 in 10.0 mi NNW 4.6 mph - N/A   Clear
8:55 PM 3.2 °F -7.8 °F -0.4 °F 85% 30.13 in 10.0 mi NNW 5.8 mph - N/A   Clear
9:14 PM 1.4 °F -12.5 °F -0.4 °F 92% 30.14 in 10.0 mi North 8.1 mph - N/A   Clear
9:55 PM 1.4 °F -9.9 °F -2.2 °F 85% 30.14 in 10.0 mi North 5.8 mph - N/A   Clear
10:14 PM -0.4 °F -12.0 °F -2.2 °F 92% 30.14 in 10.0 mi North 5.8 mph - N/A   Clear
10:34 PM 1.4 °F -9.9 °F -2.2 °F 85% 30.14 in 10.0 mi North 5.8 mph - N/A   Clear
10:55 PM -0.4 °F -12.0 °F -2.2 °F 92% 30.14 in 10.0 mi North 5.8 mph - N/A   Clear
11:14 PM 3.2 °F -10.3 °F -0.4 °F 85% 30.14 in 10.0 mi NNE 8.1 mph - N/A   Clear
11:35 PM 1.4 °F -12.5 °F -0.4 °F 92% 30.13 in 10.0 mi NNE 8.1 mph - N/A   Clear
11:55 PM 3.2 °F -9.1 °F -0.4 °F 85% 30.13 in 10.0 mi NNE 6.9 mph - N/A   Clear